Location: Hoyos del Collado
(40.3594°N, 5.2003°W)
Time: 06:17:38
(UTC+00:00)

Cosmos 2151 Rocket - Visible Passes

Search period start: 13 July 2024 00:00
Search period end: 23 July 2024 00:00
Orbit: 613 x 640 km, 82.5° (Epoch: 12 July)

Date Brightness Start Highest point End Pass type
(mag) Time Alt. Az. Time Alt. Az. Time Alt. Az.
13 Jul 3.8 20:54:08 10° NNW 20:58:33 74° W 21:02:58 10° S visible
14 Jul 5.0 21:14:08 10° NNW 21:18:10 35° W 21:22:12 10° SSW visible
15 Jul 6.1 21:34:39 10° NW 21:37:41 18° W 21:40:43 10° SW visible
16 Jul 3.6 20:15:19 10° N 20:19:46 74° E 20:24:12 10° SSE visible
17 Jul 4.4 20:35:07 10° NNW 20:39:26 54° W 20:43:47 10° S visible
18 Jul 5.7 20:55:17 10° NNW 20:59:01 27° W 21:02:45 10° SSW visible
19 Jul 6.4 21:16:13 10° NW 21:18:29 14° W 21:20:45 10° WSW visible
21 Jul 5.1 20:16:09 10° NNW 20:20:18 40° W 20:24:28 10° SSW visible
22 Jul 6.2 20:36:32 10° NW 20:39:49 21° W 20:43:07 10° SW visible
